Regional Weather Roundup
Issued by NWS

Home | Current Version | Previous Version | Text Only | Print | Product List | Glossary Off
Versions: 1 2 3 4 5 6 7 8 9 10 11 12 13 14 15 16 17 18 19 20 21 22 23 24 25 26 27 28 29 30 31 32 33 34 35 36 37 38 39 40 41 42 43 44 45 46 47 48 49 50

000
ASUS43 KBIS 021710
RWRND

NORTH DAKOTA REGIONAL WEATHER ROUNDUP
NATIONAL WEATHER SERVICE BISMARCK ND
1100 AM CST FRI DEC 02 2016

NOTE: "FAIR" INDICATES FEW OR NO CLOUDS BELOW 12,000 FEET WITH NO
SIGNIFICANT WEATHER AND/OR OBSTRUCTIONS TO VISIBILITY.


NDZ001>003-009>011-017-021800-
NORTHWEST NORTH DAKOTA

CITY           SKY/WX    TMP DP  RH WIND       PRES   REMARKS
WILLISTON      CLOUDY    28  23  81 SW8       30.19R WCI  20
MINOT          FLURRIES  27  22  81 SE6       30.21F
MINOT AFB      CLOUDY    26  22  84 SE6       30.21S WCI  19
$$

NDZ018>021-031>035-040>046-021800-
SOUTHWEST NORTH DAKOTA

CITY           SKY/WX    TMP DP  RH WIND       PRES   REMARKS
BISMARCK       CLOUDY    25  18  74 E7        30.27R WCI  17
DICKINSON      CLOUDY    25  22  88 S8        30.16R WCI  16
GARRISON         N/A     27  22  81 S10       30.22S WCI  17
HETTINGER ARPT CLOUDY    27  23  85 S5        30.19S
$$

NDZ004>008-012>016-024-026-027-054-021800-
NORTHEAST NORTH DAKOTA

CITY           SKY/WX    TMP DP  RH WIND       PRES   REMARKS
GRAND FORKS    CLOUDY    31  22  69 NW8       30.26S
GRND FRKS AFB  CLOUDY    31  23  72 N5        30.26R
DEVILS LAKE    CLOUDY    30  21  69 NW5       30.24S
$$

NDZ022-023-025-028>030-036>039-047>053-021800-
SOUTHEAST NORTH DAKOTA

CITY           SKY/WX    TMP DP  RH WIND       PRES   REMARKS
FARGO          CLOUDY    29  21  72 N9        30.27R
JAMESTOWN      CLOUDY    27  20  75 N5        30.25R
$$





USA.gov is the U.S. government's official web portal to all federal, state and local government web resources and services.